Location: Table Mountain
(47.2500°N, 120.5778°W)
Time: 07:58:17
(UTC-07:00)

Tiangong 2 - Pass Details

Date: 12 October 2017
Orbit: 388 x 392 km, 42.8° (Epoch: 18 October)

Event Time Altitude Azimuth Distance (km) Brightness Sun altitude
Exits shadow 05:20:51 25° 161° (SSE) 818 2.7 -20.4°
Drops below altitude 10° 05:23:27 10° 106° (ESE) 1,418 4.8 -20.0°
Sets 05:25:44 0° 93° (E) 2,275 6.4 -19.6°
